Location: LDNL
(36.4545°S, 141.6685°E)
Time: 11:56:50
(UTC+10:00)

Tiros 1 despin weight - Pass Details

Date: 13 August 2022
Orbit: 590 x 639 km, 48.2° (Epoch: 23 September)

Event Time Altitude Azimuth Distance (km) Brightness Sun altitude
Rises 08:13:02 0° 255° (WSW) 2,958 ? 9.3°
Reaches altitude 10° 08:16:41 10° 283° (WNW) 2,036 ? 9.9°
Maximum altitude 08:18:39 12° 308° (NW) 1,866 ? 10.3°
Drops below altitude 10° 08:20:35 10° 333° (NNW) 2,019 ? 10.6°
Sets 08:24:12 0° 2° (N) 2,908 ? 11.3°
